#timestamp,LO_Frequency,Hit,StdDev 
1515225615.8,286047001.3,N
1515225635.6,286047004.6,N
1515225655.5,286047003.9,N
1515225675.3,286047005.4,N
1515225695.1,286047002.9,N
1515225715.8,286047003.8,N
1515225735.7,286047001.5,N
1515225755.5,286047001.9,N
1515225775.3,286046998.8,N
1515225795.2,286047000.7,N
1515225815.9,286047002.1,N
1515225835.7,286047001.3,N
1515225855.6,286047000.1,N
1515225875.4,286046999.1,N
1515225895.2,286047001.2,N
1515225915.1,286047001.0,N
1515225916.0,286047001.0,N
1515225935.8,286046997.1,N
1515225955.6,286046998.9,N
1515225975.4,286046995.3,N
1515225995.3,286046993.5,N
1515226015.1,286046995.9,N
1515226035.8,286046993.3,N
1515226055.7,286046993.9,N
1515226075.5,286046997.4,N
1515226095.3,286047000.5,N
1515226115.2,286047000.7,N
1515226135.9,286047001.9,N
1515226155.7,286047001.8,N
1515226175.6,286047002.8,N
1515226195.4,286047001.2,N
1515226215.2,286046998.7,N
1515226235.1,286047000.0,N
1515226236.0,286047000.0,N
1515226255.8,286047002.1,N
1515226275.6,286047004.8,N
1515226295.4,286047004.2,N
1515226315.3,286047005.2,N
1515226335.1,286047010.8,Y
1515226355.9,286047009.0,P
1515226375.7,286047006.3,N
1515226395.5,286047007.8,N
1515226415.3,286047004.9,N
1515226435.2,286047010.4,Y
1515226455.0,286047003.1,P
1515226455.9,286047003.1,N
1515226475.7,286047007.2,P
1515226495.6,286047003.4,N
1515226515.4,286047004.6,N
1515226535.2,286047000.5,N
1515226555.1,286046997.6,N
1515226556.0,286046997.6,N
1515226575.8,286046995.3,N
1515226595.6,286046999.1,N
1515226615.5,286046999.4,N
1515226635.3,286046998.3,N
1515226655.1,286047002.8,N
1515226675.9,286047002.7,N
1515226695.7,286046999.7,N
1515226715.5,286047003.7,N
1515226735.4,286047003.5,N
1515226755.2,286047002.9,N
1515226775.0,286047007.2,N
1515226775.9,286047007.2,N
1515226795.7,286047003.6,N
1515226815.6,286047006.4,N
1515226835.4,286047004.6,N
1515226855.2,286047005.0,N
1515226875.1,286047001.3,N
1515226876.0,286047001.3,N
1515226895.8,286047002.4,N
1515226915.6,286047003.9,N
1515226935.5,286047001.9,N
1515226955.3,286047002.0,N
1515226975.1,286047000.1,N
1515226995.9,286046996.4,N
1515227015.7,286046993.3,N
1515227035.5,286046995.6,N
1515227055.4,286046994.5,N
1515227075.2,286046994.5,N
1515227095.0,286046993.1,N
1515227095.9,286046993.1,N
1515227115.8,286046988.2,N
1515227135.6,286046990.7,N
1515227155.4,286046994.4,N
1515227175.2,286046994.6,N
1515227195.1,286046995.7,N
1515227196.0,286046995.7,N
1515227215.8,286046996.1,N
1515227235.6,286046994.0,N
1515227255.5,286046991.7,N
1515227275.3,286046995.6,N
1515227295.1,286046994.4,N
1515227315.9,286046993.1,N
1515227335.7,286046990.1,N
1515227355.5,286046989.2,N
1515227375.4,286046988.7,N
1515227395.2,286046992.0,N
1515227415.0,286046991.6,N
1515227415.9,286046991.6,N
1515227435.8,286046989.5,N
1515227455.6,286046985.3,Y
1515227475.4,286046993.9,P
1515227495.3,286046997.0,P
1515227515.1,286046999.8,N
1515227516.0,286046999.8,N
1515227535.8,286047003.7,N
1515227555.7,286047003.8,N
1515227575.5,286047007.7,N
1515227595.3,286047012.4,N
1515227615.2,286047015.3,N
1515227635.9,286047015.2,N
1515227655.7,286047016.7,N
1515227675.5,286047016.5,N
1515227695.4,286047016.6,N
1515227715.2,286047016.4,N
1515227735.0,286047016.9,N
1515227735.9,286047016.9,N
1515227755.8,286047014.2,N
1515227775.6,286047019.4,N
1515227795.4,286047021.1,N
1515227815.3,286047025.2,N
1515227835.1,286047020.7,N
1515227836.0,286047020.7,N
1515227855.8,286047021.9,N
1515227875.7,286047018.3,N
1515227895.5,286047012.5,N
1515227915.3,286047009.3,N
1515227935.2,286047008.4,N
1515227955.9,286047007.7,N
1515227975.7,286047008.5,N
1515227995.5,286047009.0,N
1515228015.4,286047008.2,N
1515228035.2,286047006.3,N
1515228055.0,286047003.3,N
1515228055.9,286047003.3,N
1515228075.8,286047000.0,N
1515228095.6,286046999.8,N
1515228115.4,286046995.5,N
1515228135.3,286046991.5,N
1515228155.1,286046984.2,N
1515228175.8,286046983.3,N
1515228195.7,286046976.1,N
1515228215.5,286046977.1,N
1515228235.3,286046973.4,N
1515228255.2,286046970.9,N
1515228275.9,286046972.5,N
1515228295.7,286046979.5,N
1515228315.6,286046979.4,N
1515228335.4,286046981.2,N
1515228355.2,286046980.7,N
1515228375.0,286046978.2,N
1515228375.9,286046978.2,N
1515228395.8,286046975.8,N
1515228415.6,286046980.6,N
1515228435.4,286046984.9,N
1515228455.3,286046985.8,N
1515228475.1,286046984.1,N
1515228495.8,286046982.2,N
1515228515.7,286046982.5,N
1515228535.5,286046982.3,N
1515228555.3,286046982.6,N
1515228575.2,286046983.6,N
1515228595.9,286046978.9,N
1515228615.7,286046977.8,N
1515228635.6,286046978.5,N
1515228655.4,286046981.5,N
1515228675.2,286046985.9,N
1515228695.0,286046990.9,N
1515228695.9,286046990.9,N
1515228715.8,286046990.7,N
1515228735.6,286046992.6,N
1515228755.4,286046995.8,N
1515228775.3,286046995.2,N
1515228795.1,286046996.9,N
1515228815.8,286046993.0,N
1515228835.7,286046996.9,N
1515228855.5,286047001.1,N
1515228875.3,286046999.7,N
1515228895.2,286047003.7,N
1515228915.9,286047006.0,N
1515228935.7,286047006.7,N
1515228955.6,286047007.5,N
1515228975.4,286047007.4,N
1515228995.2,286047004.8,N
1515229015.0,286047005.7,N
1515229016.0,286047005.7,N
1515229035.8,286047006.6,N
1515229055.6,286047009.4,N
1515229075.4,286047009.5,N
1515229095.3,286047010.0,N
1515229115.1,286047007.7,N
1515229135.8,286047014.7,N
1515229155.7,286047015.7,N
1515229175.5,286047017.7,N
1515229195.3,286047016.4,N
